Time,TemperatureF,DewpointF,PressureIn,WindDirection,WindDirectionDegrees,WindSpeedMPH,WindSpeedGustMPH,Humidity,HourlyPrecipIn,Conditions,Clouds,dailyrainin,SoftwareType,DateUTC
2013-03-07 00:00:00,34.4,27.8,29.99,NW,315,3.4,6.0,77,0.00,,,0.00,WUHU216HW,2013-03-07 05:00:00,
2013-03-07 00:05:00,34.4,27.8,29.99,North,0,1.6,5.1,77,0.00,,,0.00,WUHU216HW,2013-03-07 05:05:00,
2013-03-07 00:10:00,34.4,27.8,29.99,NW,315,1.8,5.1,77,0.00,,,0.00,WUHU216HW,2013-03-07 05:10:00,
2013-03-07 00:15:00,34.4,27.8,29.99,NW,315,6.3,6.3,77,0.00,,,0.00,WUHU216HW,2013-03-07 05:15:00,
2013-03-07 00:20:00,34.4,27.8,29.99,NW,315,0.9,6.3,77,0.00,,,0.00,WUHU216HW,2013-03-07 05:20:00,
2013-03-07 00:25:00,34.4,27.8,29.99,WNW,293,3.4,6.3,77,0.00,,,0.00,WUHU216HW,2013-03-07 05:25:00,
2013-03-07 00:30:00,34.2,27.6,29.99,North,0,4.5,5.1,77,0.00,,,0.00,WUHU216HW,2013-03-07 05:30:00,
2013-03-07 00:35:00,34.2,28.0,29.99,NE,45,1.1,5.4,78,0.00,,,0.00,WUHU216HW,2013-03-07 05:35:00,
2013-03-07 00:40:00,34.2,28.3,29.99,West,270,3.4,5.4,79,0.00,,,0.00,WUHU216HW,2013-03-07 05:40:00,
2013-03-07 00:45:00,34.0,28.4,29.99,ENE,68,0.4,4.3,80,0.00,,,0.00,WUHU216HW,2013-03-07 05:45:00,
2013-03-07 00:50:00,33.7,28.4,29.99,NW,315,5.4,5.4,81,0.00,,,0.00,WUHU216HW,2013-03-07 05:50:00,
2013-03-07 00:55:00,33.1,28.4,29.99,NW,315,2.5,7.2,83,0.00,,,0.00,WUHU216HW,2013-03-07 05:55:00,
2013-03-07 01:00:00,32.9,28.6,29.99,NW,315,2.0,7.2,84,0.00,,,0.00,WUHU216HW,2013-03-07 06:00:00,
2013-03-07 01:05:00,32.9,28.6,29.99,NNW,338,2.0,5.1,84,0.00,,,0.00,WUHU216HW,2013-03-07 06:05:00,
2013-03-07 01:10:00,32.8,28.4,29.99,NW,315,4.7,5.4,84,0.00,,,0.00,WUHU216HW,2013-03-07 06:10:00,
2013-03-07 01:15:00,32.8,28.7,29.99,West,270,3.6,5.4,85,0.00,,,0.00,WUHU216HW,2013-03-07 06:15:00,
2013-03-07 01:20:00,32.6,28.9,29.99,WNW,293,6.9,6.9,86,0.00,,,0.00,WUHU216HW,2013-03-07 06:20:00,
2013-03-07 01:25:00,32.4,29.0,30.00,WNW,293,1.8,6.9,87,0.00,,,0.00,WUHU216HW,2013-03-07 06:25:00,
2013-03-07 01:30:00,32.2,29.1,29.99,West,270,0.2,4.0,88,0.00,,,0.00,WUHU216HW,2013-03-07 06:30:00,
2013-03-07 01:35:00,32.0,29.3,29.99,North,0,1.1,4.0,89,0.00,,,0.00,WUHU216HW,2013-03-07 06:35:00,
2013-03-07 01:40:00,31.9,29.1,29.99,East,90,2.5,4.0,89,0.00,,,0.00,WUHU216HW,2013-03-07 06:40:00,
2013-03-07 01:45:00,31.7,29.2,29.99,WNW,293,2.5,6.9,90,0.00,,,0.00,WUHU216HW,2013-03-07 06:45:00,
2013-03-07 01:50:00,31.7,29.4,29.99,North,0,1.6,6.9,91,0.00,,,0.00,WUHU216HW,2013-03-07 06:50:00,
2013-03-07 01:55:00,31.5,29.3,29.98,West,270,3.8,5.4,91,0.00,,,0.00,WUHU216HW,2013-03-07 06:55:00,
2013-03-07 02:00:00,31.5,29.3,29.98,NW,315,1.8,5.4,91,0.00,,,0.00,WUHU216HW,2013-03-07 07:00:00,
2013-03-07 02:05:00,31.5,29.3,29.98,NNW,338,5.4,5.4,91,0.00,,,0.00,WUHU216HW,2013-03-07 07:05:00,
2013-03-07 02:10:00,31.3,29.1,29.98,NW,315,4.7,5.4,91,0.00,,,0.00,WUHU216HW,2013-03-07 07:10:00,
2013-03-07 02:15:00,31.3,29.1,29.98,ENE,68,0.9,4.7,91,0.00,,,0.00,WUHU216HW,2013-03-07 07:15:00,
2013-03-07 02:20:00,31.3,29.1,29.97,NW,315,3.4,4.7,91,0.00,,,0.00,WUHU216HW,2013-03-07 07:20:00,
2013-03-07 02:25:00,31.3,29.1,29.97,WNW,293,4.7,4.7,91,0.00,,,0.00,WUHU216HW,2013-03-07 07:25:00,
2013-03-07 02:30:00,31.3,29.1,29.97,NNW,338,3.6,4.7,91,0.00,,,0.00,WUHU216HW,2013-03-07 07:30:00,
2013-03-07 02:35:00,31.3,29.1,29.97,North,0,5.4,5.4,91,0.00,,,0.00,WUHU216HW,2013-03-07 07:35:00,
2013-03-07 02:40:00,31.3,29.1,29.97,NNW,338,2.7,7.6,91,0.00,,,0.00,WUHU216HW,2013-03-07 07:40:00,
2013-03-07 02:45:00,31.3,29.1,29.96,NNW,338,2.7,7.6,91,0.00,,,0.00,WUHU216HW,2013-03-07 07:45:00,
2013-03-07 02:50:00,31.3,29.1,29.96,NW,315,1.6,4.5,91,0.00,,,0.00,WUHU216HW,2013-03-07 07:50:00,
2013-03-07 02:55:00,31.3,29.1,29.96,NNE,23,1.3,6.0,91,0.00,,,0.00,WUHU216HW,2013-03-07 07:55:00,
2013-03-07 03:00:00,31.3,28.8,29.97,WNW,293,1.3,6.0,90,0.00,,,0.00,WUHU216HW,2013-03-07 08:00:00,
2013-03-07 03:05:00,31.3,28.8,29.97,North,0,2.2,4.3,90,0.00,,,0.00,WUHU216HW,2013-03-07 08:05:00,
2013-03-07 03:10:00,31.3,28.8,29.96,North,0,2.2,4.3,90,0.00,,,0.00,WUHU216HW,2013-03-07 08:10:00,
2013-03-07 03:16:00,31.3,28.8,29.96,North,0,6.9,6.9,90,0.00,,,0.00,WUHU216HW,2013-03-07 08:16:00,
2013-03-07 03:21:00,31.1,28.4,29.97,WNW,293,1.8,6.9,89,0.00,,,0.00,WUHU216HW,2013-03-07 08:21:00,
2013-03-07 03:26:00,31.1,28.4,29.97,NW,315,2.9,4.0,89,0.00,,,0.00,WUHU216HW,2013-03-07 08:26:00,
2013-03-07 03:31:00,31.1,28.4,29.97,NW,315,2.5,5.4,89,0.00,,,0.00,WUHU216HW,2013-03-07 08:31:00,
2013-03-07 03:36:00,31.1,28.4,29.97,NE,45,2.5,5.4,89,0.00,,,0.00,WUHU216HW,2013-03-07 08:36:00,
2013-03-07 03:41:00,31.3,28.8,29.97,WNW,293,4.7,5.4,90,0.00,,,0.00,WUHU216HW,2013-03-07 08:41:00,
2013-03-07 03:46:00,31.3,28.5,29.97,NW,315,4.9,5.4,89,0.00,,,0.00,WUHU216HW,2013-03-07 08:46:00,
2013-03-07 03:51:00,31.3,28.3,29.97,NNW,338,1.6,4.9,88,0.00,,,0.00,WUHU216HW,2013-03-07 08:51:00,
2013-03-07 03:56:00,31.3,28.3,29.98,WNW,293,1.8,4.9,88,0.00,,,0.00,WUHU216HW,2013-03-07 08:56:00,
2013-03-07 04:01:00,31.5,27.8,29.98,West,270,4.3,4.9,86,0.00,,,0.00,WUHU216HW,2013-03-07 09:01:00,
2013-03-07 04:06:00,31.7,28.0,29.98,NNW,338,3.4,4.5,86,0.00,,,0.00,WUHU216HW,2013-03-07 09:06:00,
2013-03-07 04:11:00,31.7,28.0,29.98,WNW,293,2.5,3.4,86,0.00,,,0.00,WUHU216HW,2013-03-07 09:11:00,
2013-03-07 04:16:00,31.7,27.7,29.98,NNW,338,2.0,6.0,85,0.00,,,0.00,WUHU216HW,2013-03-07 09:16:00,
2013-03-07 04:21:00,31.7,27.5,29.98,NNW,338,1.8,6.0,84,0.00,,,0.00,WUHU216HW,2013-03-07 09:21:00,
2013-03-07 04:26:00,31.9,27.4,29.98,NNW,338,1.8,6.3,83,0.00,,,0.00,WUHU216HW,2013-03-07 09:26:00,
2013-03-07 04:31:00,31.9,27.6,29.98,NNW,338,2.5,6.3,84,0.00,,,0.00,WUHU216HW,2013-03-07 09:31:00,
2013-03-07 04:36:00,31.9,27.4,29.98,NE,45,0.7,6.0,83,0.00,,,0.00,WUHU216HW,2013-03-07 09:36:00,
2013-03-07 04:41:00,31.9,27.4,29.98,NNE,23,1.1,6.0,83,0.00,,,0.00,WUHU216HW,2013-03-07 09:41:00,
2013-03-07 04:46:00,31.9,27.4,29.98,NNW,338,4.5,5.8,83,0.00,,,0.00,WUHU216HW,2013-03-07 09:46:00,
2013-03-07 04:51:00,31.7,27.2,29.98,NNW,338,1.6,5.8,83,0.00,,,0.00,WUHU216HW,2013-03-07 09:51:00,
2013-03-07 04:56:00,31.7,27.2,29.98,WNW,293,4.7,4.7,83,0.00,,,0.00,WUHU216HW,2013-03-07 09:56:00,
2013-03-07 05:01:00,31.7,27.2,29.98,NW,315,1.6,4.7,83,0.00,,,0.00,WUHU216HW,2013-03-07 10:01:00,
2013-03-07 05:06:00,31.9,27.4,29.98,NW,315,1.6,4.3,83,0.00,,,0.00,WUHU216HW,2013-03-07 10:06:00,
2013-03-07 05:11:00,31.9,27.4,29.98,NW,315,2.5,4.9,83,0.00,,,0.00,WUHU216HW,2013-03-07 10:11:00,
2013-03-07 05:16:00,31.9,27.4,29.99,NW,315,1.8,4.9,83,0.00,,,0.00,WUHU216HW,2013-03-07 10:16:00,
2013-03-07 05:22:00,31.9,27.0,29.99,NW,315,8.1,8.1,82,0.00,,,0.00,WUHU216HW,2013-03-07 10:22:00,
2013-03-07 05:27:00,32.0,27.2,29.99,NW,315,2.2,8.1,82,0.00,,,0.00,WUHU216HW,2013-03-07 10:27:00,
2013-03-07 05:32:00,32.0,26.9,29.99,East,90,2.9,4.9,81,0.00,,,0.00,WUHU216HW,2013-03-07 10:32:00,
2013-03-07 05:37:00,31.9,27.0,29.99,WNW,293,2.5,4.9,82,0.00,,,0.00,WUHU216HW,2013-03-07 10:37:00,
2013-03-07 05:42:00,31.9,27.4,30.00,WNW,293,0.9,3.4,83,0.00,,,0.00,WUHU216HW,2013-03-07 10:42:00,
2013-03-07 05:47:00,31.7,27.2,30.00,West,270,2.9,6.3,83,0.00,,,0.00,WUHU216HW,2013-03-07 10:47:00,
2013-03-07 05:52:00,31.7,27.5,30.00,WNW,293,2.7,6.3,84,0.00,,,0.00,WUHU216HW,2013-03-07 10:52:00,
2013-03-07 05:57:00,31.5,27.5,30.00,NNW,338,1.1,4.0,85,0.00,,,0.00,WUHU216HW,2013-03-07 10:57:00,
2013-03-07 06:02:00,31.5,27.5,30.00,NNW,338,1.8,3.6,85,0.00,,,0.00,WUHU216HW,2013-03-07 11:02:00,
2013-03-07 06:07:00,31.3,27.6,30.01,WNW,293,2.5,3.6,86,0.00,,,0.00,WUHU216HW,2013-03-07 11:07:00,
2013-03-07 06:12:00,31.3,27.6,30.01,WNW,293,0.2,2.5,86,0.00,,,0.00,WUHU216HW,2013-03-07 11:12:00,
2013-03-07 06:17:00,31.3,27.6,30.01,NNW,338,1.1,5.6,86,0.00,,,0.00,WUHU216HW,2013-03-07 11:17:00,
2013-03-07 06:22:00,31.3,27.6,30.01,NW,315,1.6,5.6,86,0.00,,,0.00,WUHU216HW,2013-03-07 11:22:00,
2013-03-07 06:27:00,31.1,27.5,30.01,WNW,293,3.1,3.1,86,0.00,,,0.00,WUHU216HW,2013-03-07 11:27:00,
2013-03-07 06:32:00,31.1,27.5,30.01,NNW,338,0.0,3.1,86,0.00,,,0.00,WUHU216HW,2013-03-07 11:32:00,
2013-03-07 06:37:00,31.1,27.7,30.01,WNW,293,1.8,5.8,87,0.00,,,0.00,WUHU216HW,2013-03-07 11:37:00,
2013-03-07 06:42:00,31.1,27.7,30.01,NNW,338,0.4,6.3,87,0.00,,,0.00,WUHU216HW,2013-03-07 11:42:00,
2013-03-07 06:47:00,31.0,27.9,30.02,NNW,338,3.1,6.3,88,0.00,,,0.00,WUHU216HW,2013-03-07 11:47:00,
2013-03-07 06:52:00,31.0,28.2,30.02,West,270,0.9,4.7,89,0.00,,,0.00,WUHU216HW,2013-03-07 11:52:00,
2013-03-07 06:57:00,30.8,28.0,30.02,NW,315,0.9,4.7,89,0.00,,,0.00,WUHU216HW,2013-03-07 11:57:00,
2013-03-07 07:02:00,31.0,28.2,30.02,NW,315,1.1,4.7,89,0.00,,,0.00,WUHU216HW,2013-03-07 12:02:00,
2013-03-07 07:07:00,30.8,28.0,30.02,NE,45,1.6,4.7,89,0.00,,,0.00,WUHU216HW,2013-03-07 12:07:00,
2013-03-07 07:12:00,31.0,27.9,30.02,NW,315,2.5,4.5,88,0.00,,,0.00,WUHU216HW,2013-03-07 12:12:00,
2013-03-07 07:17:00,31.0,27.9,30.02,NW,315,3.1,4.5,88,0.00,,,0.00,WUHU216HW,2013-03-07 12:17:00,
2013-03-07 07:22:00,31.1,28.1,30.02,NE,45,1.8,4.7,88,0.00,,,0.00,WUHU216HW,2013-03-07 12:22:00,
2013-03-07 07:27:00,31.1,27.7,30.02,NNW,338,4.5,4.7,87,0.00,,,0.00,WUHU216HW,2013-03-07 12:27:00,
2013-03-07 07:32:00,31.3,27.9,30.02,NNW,338,3.8,5.4,87,0.00,,,0.00,WUHU216HW,2013-03-07 12:32:00,
2013-03-07 07:37:00,31.3,27.6,30.03,NW,315,2.5,6.5,86,0.00,,,0.00,WUHU216HW,2013-03-07 12:37:00,
2013-03-07 07:42:00,31.3,27.6,30.03,NW,315,1.8,6.5,86,0.00,,,0.00,WUHU216HW,2013-03-07 12:42:00,
2013-03-07 07:47:00,31.3,27.6,30.03,NNE,23,3.6,4.0,86,0.00,,,0.00,WUHU216HW,2013-03-07 12:47:00,
2013-03-07 07:52:00,31.3,27.6,30.03,WNW,293,2.0,4.0,86,0.00,,,0.00,WUHU216HW,2013-03-07 12:52:00,
2013-03-07 07:57:00,31.3,27.6,30.03,North,0,2.9,8.7,86,0.00,,,0.00,WUHU216HW,2013-03-07 12:57:00,
2013-03-07 08:02:00,31.3,27.6,30.03,NE,45,1.8,8.7,86,0.00,,,0.00,WUHU216HW,2013-03-07 13:02:00,
2013-03-07 08:07:00,31.1,27.7,30.03,NW,315,4.3,5.4,87,0.00,,,0.00,WUHU216HW,2013-03-07 13:07:00,
2013-03-07 08:12:00,31.1,28.1,30.03,NNW,338,2.5,7.4,88,0.00,,,0.00,WUHU216HW,2013-03-07 13:12:00,
2013-03-07 08:17:00,31.1,28.4,30.03,NW,315,1.1,7.4,89,0.00,,,0.00,WUHU216HW,2013-03-07 13:17:00,
2013-03-07 08:22:00,31.1,28.4,30.02,West,270,4.7,4.7,89,0.00,,,0.00,WUHU216HW,2013-03-07 13:22:00,
2013-03-07 08:27:00,31.1,28.4,30.02,NNE,23,3.6,5.6,89,0.00,,,0.00,WUHU216HW,2013-03-07 13:27:00,
2013-03-07 08:32:00,31.3,28.5,30.02,NNW,338,4.7,5.6,89,0.00,,,0.00,WUHU216HW,2013-03-07 13:32:00,
2013-03-07 08:37:00,31.1,28.4,30.02,NW,315,3.8,4.7,89,0.00,,,0.00,WUHU216HW,2013-03-07 13:37:00,
2013-03-07 08:42:00,31.3,28.5,30.02,North,0,1.3,4.3,89,0.00,,,0.00,WUHU216HW,2013-03-07 13:42:00,
2013-03-07 08:47:00,31.3,28.5,30.02,NNW,338,4.7,5.4,89,0.00,,,0.00,WUHU216HW,2013-03-07 13:47:00,
2013-03-07 08:52:00,31.1,28.4,30.02,NW,315,4.0,5.4,89,0.00,,,0.00,WUHU216HW,2013-03-07 13:52:00,
2013-03-07 08:57:00,31.3,28.5,30.02,NW,315,1.8,5.1,89,0.00,,,0.00,WUHU216HW,2013-03-07 13:57:00,
2013-03-07 09:02:00,31.5,28.7,30.02,West,270,3.4,5.1,89,0.00,,,0.00,WUHU216HW,2013-03-07 14:02:00,
2013-03-07 09:07:00,32.0,29.0,30.02,West,270,2.5,5.1,88,0.00,,,0.00,WUHU216HW,2013-03-07 14:07:00,
2013-03-07 09:12:00,32.4,29.0,30.02,NW,315,4.7,6.0,87,0.00,,,0.00,WUHU216HW,2013-03-07 14:12:00,
2013-03-07 09:17:00,32.8,29.0,30.02,NW,315,7.4,7.4,86,0.00,,,0.00,WUHU216HW,2013-03-07 14:17:00,
2013-03-07 09:23:00,32.8,29.0,30.02,NNE,23,3.4,7.4,86,0.00,,,0.00,WUHU216HW,2013-03-07 14:23:00,
2013-03-07 09:28:00,32.8,28.4,30.01,NW,315,4.9,6.3,84,0.00,,,0.00,WUHU216HW,2013-03-07 14:28:00,
2013-03-07 09:33:00,32.9,28.6,30.01,North,0,1.3,4.9,84,0.00,,,0.00,WUHU216HW,2013-03-07 14:33:00,
2013-03-07 09:38:00,32.9,28.6,30.01,NW,315,1.8,6.9,84,0.00,,,0.00,WUHU216HW,2013-03-07 14:38:00,
2013-03-07 09:43:00,33.5,28.8,30.01,NNW,338,0.7,6.9,83,0.00,,,0.00,WUHU216HW,2013-03-07 14:43:00,
2013-03-07 09:48:00,34.0,29.0,30.01,NNW,338,5.1,5.4,82,0.00,,,0.00,WUHU216HW,2013-03-07 14:48:00,
2013-03-07 09:53:00,35.1,28.9,30.01,NNW,338,3.4,5.8,78,0.00,,,0.00,WUHU216HW,2013-03-07 14:53:00,
2013-03-07 09:58:00,35.6,29.1,30.01,WNW,293,3.6,9.8,77,0.01,,,0.01,WUHU216HW,2013-03-07 14:58:00,
2013-03-07 10:03:00,35.6,28.1,30.01,NNW,338,4.0,9.8,74,0.01,,,0.01,WUHU216HW,2013-03-07 15:03:00,
2013-03-07 10:08:00,35.3,28.1,30.01,WSW,248,1.1,7.6,75,0.01,,,0.01,WUHU216HW,2013-03-07 15:08:00,
2013-03-07 10:13:00,35.3,28.1,30.01,NW,315,2.5,8.7,75,0.02,,,0.02,WUHU216HW,2013-03-07 15:13:00,
2013-03-07 10:18:00,35.6,28.1,30.01,NNE,23,5.4,8.7,74,0.02,,,0.02,WUHU216HW,2013-03-07 15:18:00,
2013-03-07 10:23:00,35.3,28.1,30.01,NNW,338,3.8,7.4,75,0.02,,,0.02,WUHU216HW,2013-03-07 15:23:00,
2013-03-07 10:28:00,35.1,27.9,30.01,NNW,338,3.6,8.1,75,0.03,,,0.02,WUHU216HW,2013-03-07 15:28:00,
2013-03-07 10:33:00,34.9,27.7,30.01,NNW,338,0.0,8.1,75,0.03,,,0.03,WUHU216HW,2013-03-07 15:33:00,
2013-03-07 10:38:00,35.1,27.9,30.01,NW,315,4.7,10.1,75,0.03,,,0.03,WUHU216HW,2013-03-07 15:38:00,
2013-03-07 10:43:00,34.7,27.5,30.01,NW,315,4.7,10.1,75,0.03,,,0.03,WUHU216HW,2013-03-07 15:43:00,
2013-03-07 10:48:00,34.9,27.7,30.02,North,0,3.1,11.4,75,0.03,,,0.03,WUHU216HW,2013-03-07 15:48:00,
2013-03-07 10:53:00,34.9,27.7,30.02,NNW,338,5.8,11.4,75,0.02,,,0.03,WUHU216HW,2013-03-07 15:53:00,
2013-03-07 10:58:00,35.1,27.5,30.02,NW,315,6.5,6.5,74,0.02,,,0.03,WUHU216HW,2013-03-07 15:58:00,
2013-03-07 11:03:00,35.3,27.7,30.02,NNW,338,0.7,6.5,74,0.02,,,0.03,WUHU216HW,2013-03-07 16:03:00,
2013-03-07 11:08:00,35.1,27.5,30.02,North,0,5.4,7.6,74,0.01,,,0.03,WUHU216HW,2013-03-07 16:08:00,
2013-03-07 11:13:00,35.5,27.9,30.02,NW,315,2.5,7.6,74,0.02,,,0.04,WUHU216HW,2013-03-07 16:13:00,
2013-03-07 11:18:00,35.6,27.8,30.02,NNW,338,1.8,4.3,73,0.02,,,0.04,WUHU216HW,2013-03-07 16:18:00,
2013-03-07 11:23:00,35.6,27.8,30.02,North,0,5.4,5.4,73,0.02,,,0.04,WUHU216HW,2013-03-07 16:23:00,
2013-03-07 11:28:00,35.6,27.8,30.02,West,270,2.5,6.3,73,0.01,,,0.04,WUHU216HW,2013-03-07 16:28:00,
2013-03-07 11:33:00,35.6,27.8,30.02,WNW,293,4.7,6.3,73,0.01,,,0.04,WUHU216HW,2013-03-07 16:33:00,
2013-03-07 11:38:00,35.6,27.8,30.02,NW,315,3.4,5.8,73,0.01,,,0.04,WUHU216HW,2013-03-07 16:38:00,
2013-03-07 11:43:00,35.6,27.2,30.02,ESE,113,3.4,7.8,71,0.01,,,0.04,WUHU216HW,2013-03-07 16:43:00,
2013-03-07 11:48:00,35.8,27.4,30.02,NNW,338,5.6,7.8,71,0.01,,,0.04,WUHU216HW,2013-03-07 16:48:00,
2013-03-07 11:53:00,36.4,28.5,30.02,WSW,248,1.3,5.6,73,0.01,,,0.04,WUHU216HW,2013-03-07 16:53:00,
2013-03-07 11:58:00,36.5,28.1,30.02,NNW,338,1.8,6.3,71,0.01,,,0.04,WUHU216HW,2013-03-07 16:58:00,
2013-03-07 12:03:00,36.7,28.3,30.02,WNW,293,6.7,6.7,71,0.01,,,0.04,WUHU216HW,2013-03-07 17:03:00,
2013-03-07 12:08:00,36.7,28.3,30.02,NW,315,4.3,7.6,71,0.00,,,0.04,WUHU216HW,2013-03-07 17:08:00,
2013-03-07 12:13:00,36.9,28.5,30.02,WNW,293,4.0,7.6,71,0.00,,,0.04,WUHU216HW,2013-03-07 17:13:00,
2013-03-07 12:19:00,36.7,28.3,30.02,West,270,3.4,7.8,71,0.00,,,0.04,WUHU216HW,2013-03-07 17:19:00,
2013-03-07 12:24:00,36.9,28.5,30.02,NW,315,2.2,7.8,71,0.00,,,0.04,WUHU216HW,2013-03-07 17:24:00,
2013-03-07 12:29:00,36.7,28.5,30.02,North,0,4.7,7.8,72,0.00,,,0.04,WUHU216HW,2013-03-07 17:29:00,
2013-03-07 12:34:00,36.4,28.5,30.02,NNW,338,4.0,6.5,73,0.00,,,0.04,WUHU216HW,2013-03-07 17:34:00,
2013-03-07 12:39:00,36.2,28.6,30.02,North,0,1.8,6.7,74,0.00,,,0.04,WUHU216HW,2013-03-07 17:39:00,
2013-03-07 12:44:00,36.0,29.2,30.01,NNE,23,2.0,6.7,76,0.00,,,0.04,WUHU216HW,2013-03-07 17:44:00,
2013-03-07 12:49:00,35.6,29.1,30.01,West,270,5.1,5.1,77,0.00,,,0.04,WUHU216HW,2013-03-07 17:49:00,
2013-03-07 12:54:00,35.8,29.6,30.01,NNW,338,0.9,5.1,78,0.00,,,0.04,WUHU216HW,2013-03-07 17:54:00,
2013-03-07 12:59:00,36.0,29.8,30.01,West,270,1.3,4.5,78,0.00,,,0.04,WUHU216HW,2013-03-07 17:59:00,
2013-03-07 13:04:00,35.8,30.2,30.01,ENE,68,0.7,4.9,80,0.00,,,0.04,WUHU216HW,2013-03-07 18:04:00,
2013-03-07 13:09:00,35.8,30.8,30.01,NNW,338,1.8,4.9,82,0.00,,,0.04,WUHU216HW,2013-03-07 18:09:00,
2013-03-07 13:14:00,35.5,30.4,30.01,NW,315,3.4,5.4,82,0.00,,,0.04,WUHU216HW,2013-03-07 18:14:00,
2013-03-07 13:19:00,34.9,30.5,30.01,ENE,68,1.8,5.4,84,0.00,,,0.04,WUHU216HW,2013-03-07 18:19:00,
2013-03-07 13:24:00,35.1,31.0,30.01,West,270,2.9,3.6,85,0.00,,,0.04,WUHU216HW,2013-03-07 18:24:00,
2013-03-07 13:29:00,35.6,31.5,30.01,WNW,293,3.8,4.7,85,0.00,,,0.04,WUHU216HW,2013-03-07 18:29:00,
2013-03-07 13:34:00,35.6,31.2,30.01,West,270,3.1,4.7,84,0.00,,,0.04,WUHU216HW,2013-03-07 18:34:00,
2013-03-07 13:39:00,35.5,31.1,30.01,NW,315,3.4,4.7,84,0.00,,,0.04,WUHU216HW,2013-03-07 18:39:00,
2013-03-07 13:44:00,35.6,31.2,30.01,West,270,7.4,7.4,84,0.00,,,0.04,WUHU216HW,2013-03-07 18:44:00,
2013-03-07 13:49:00,35.6,31.5,30.01,WNW,293,2.2,7.4,85,0.00,,,0.04,WUHU216HW,2013-03-07 18:49:00,
2013-03-07 13:54:00,35.3,31.1,30.01,NW,315,1.1,4.7,85,0.00,,,0.04,WUHU216HW,2013-03-07 18:54:00,
2013-03-07 13:59:00,35.1,30.7,30.01,North,0,1.1,4.7,84,0.00,,,0.04,WUHU216HW,2013-03-07 18:59:00,
2013-03-07 14:04:00,35.1,31.0,30.01,WNW,293,0.4,4.3,85,0.00,,,0.04,WUHU216HW,2013-03-07 19:04:00,
2013-03-07 14:09:00,35.1,30.7,30.01,NW,315,2.0,5.1,84,0.00,,,0.04,WUHU216HW,2013-03-07 19:09:00,
2013-03-07 14:14:00,34.9,30.5,30.01,West,270,3.1,5.1,84,0.00,,,0.04,WUHU216HW,2013-03-07 19:14:00,
2013-03-07 14:19:00,34.9,30.8,30.01,NW,315,6.0,6.0,85,0.00,,,0.04,WUHU216HW,2013-03-07 19:19:00,
2013-03-07 14:24:00,34.9,30.8,30.01,North,0,1.3,6.0,85,0.00,,,0.04,WUHU216HW,2013-03-07 19:24:00,
2013-03-07 14:29:00,34.9,30.8,30.01,West,270,0.7,4.5,85,0.00,,,0.04,WUHU216HW,2013-03-07 19:29:00,
2013-03-07 14:34:00,35.1,31.2,30.01,WNW,293,0.2,4.5,86,0.00,,,0.04,WUHU216HW,2013-03-07 19:34:00,
2013-03-07 14:39:00,35.3,31.1,30.01,West,270,2.2,3.4,85,0.00,,,0.04,WUHU216HW,2013-03-07 19:39:00,
2013-03-07 14:44:00,35.5,31.1,30.01,NW,315,2.9,3.4,84,0.00,,,0.04,WUHU216HW,2013-03-07 19:44:00,
2013-03-07 14:49:00,35.5,31.1,30.01,North,0,1.8,4.0,84,0.00,,,0.04,WUHU216HW,2013-03-07 19:49:00,
2013-03-07 14:54:00,35.6,31.2,30.01,NW,315,2.7,4.7,84,0.00,,,0.04,WUHU216HW,2013-03-07 19:54:00,
2013-03-07 14:59:00,35.6,31.2,30.01,North,0,5.4,5.4,84,0.00,,,0.04,WUHU216HW,2013-03-07 19:59:00,
2013-03-07 15:04:00,35.3,30.9,30.01,NW,315,1.3,5.4,84,0.00,,,0.04,WUHU216HW,2013-03-07 20:04:00,
2013-03-07 15:09:00,35.3,30.9,30.01,West,270,3.4,5.4,84,0.00,,,0.04,WUHU216HW,2013-03-07 20:09:00,
2013-03-07 15:14:00,35.3,30.9,30.01,NNW,338,1.1,4.7,84,0.00,,,0.04,WUHU216HW,2013-03-07 20:14:00,
2013-03-07 15:19:00,35.3,30.9,30.02,NNW,338,3.4,4.0,84,0.00,,,0.04,WUHU216HW,2013-03-07 20:19:00,
2013-03-07 15:24:00,35.3,30.9,30.02,NNW,338,1.1,3.4,84,0.00,,,0.04,WUHU216HW,2013-03-07 20:24:00,
2013-03-07 15:29:00,35.5,31.1,30.02,NNE,23,1.6,2.5,84,0.00,,,0.04,WUHU216HW,2013-03-07 20:29:00,
2013-03-07 15:34:00,35.3,31.1,30.02,NNW,338,2.2,3.4,85,0.00,,,0.04,WUHU216HW,2013-03-07 20:34:00,
2013-03-07 15:39:00,35.1,30.7,30.02,NNW,338,4.7,4.7,84,0.00,,,0.04,WUHU216HW,2013-03-07 20:39:00,
2013-03-07 15:44:00,34.9,30.5,30.02,NNW,338,4.9,4.9,84,0.00,,,0.04,WUHU216HW,2013-03-07 20:44:00,
2013-03-07 15:49:00,34.7,30.6,30.02,WNW,293,2.5,4.9,85,0.00,,,0.04,WUHU216HW,2013-03-07 20:49:00,
2013-03-07 15:54:00,34.7,30.6,30.02,WNW,293,0.9,4.7,85,0.01,,,0.05,WUHU216HW,2013-03-07 20:54:00,
2013-03-07 15:59:00,34.6,30.4,30.03,WNW,293,2.9,6.3,85,0.01,,,0.05,WUHU216HW,2013-03-07 20:59:00,
2013-03-07 16:04:00,34.7,30.6,30.03,NW,315,1.3,6.3,85,0.01,,,0.05,WUHU216HW,2013-03-07 21:04:00,
2013-03-07 16:10:00,34.7,30.6,30.03,NW,315,0.4,2.9,85,0.01,,,0.05,WUHU216HW,2013-03-07 21:10:00,
2013-03-07 16:15:00,34.6,30.4,30.03,SW,225,2.5,3.6,85,0.01,,,0.05,WUHU216HW,2013-03-07 21:15:00,
2013-03-07 16:20:00,34.4,30.2,30.03,West,270,3.6,4.5,85,0.01,,,0.05,WUHU216HW,2013-03-07 21:20:00,
2013-03-07 16:25:00,34.4,30.2,30.03,NNW,338,3.1,4.5,85,0.01,,,0.05,WUHU216HW,2013-03-07 21:25:00,
2013-03-07 16:30:00,34.4,30.5,30.03,West,270,2.9,3.6,86,0.01,,,0.05,WUHU216HW,2013-03-07 21:30:00,
2013-03-07 16:35:00,34.2,30.3,30.03,NW,315,2.0,3.1,86,0.01,,,0.05,WUHU216HW,2013-03-07 21:35:00,
2013-03-07 16:40:00,34.2,30.3,30.02,NW,315,1.1,3.4,86,0.01,,,0.05,WUHU216HW,2013-03-07 21:40:00,
2013-03-07 16:45:00,34.4,30.5,30.03,WNW,293,1.1,3.4,86,0.01,,,0.05,WUHU216HW,2013-03-07 21:45:00,
2013-03-07 16:50:00,34.2,30.3,30.03,NNW,338,2.5,2.5,86,0.00,,,0.05,WUHU216HW,2013-03-07 21:50:00,
2013-03-07 16:55:00,34.4,30.5,30.03,WNW,293,0.4,4.7,86,0.00,,,0.05,WUHU216HW,2013-03-07 21:55:00,
2013-03-07 17:00:00,34.4,30.5,30.03,NW,315,1.6,4.7,86,0.00,,,0.05,WUHU216HW,2013-03-07 22:00:00,
2013-03-07 17:05:00,34.2,30.3,30.03,WNW,293,2.0,6.5,86,0.00,,,0.05,WUHU216HW,2013-03-07 22:05:00,
2013-03-07 17:10:00,34.2,30.3,30.04,NW,315,2.0,6.5,86,0.00,,,0.05,WUHU216HW,2013-03-07 22:10:00,
2013-03-07 17:15:00,34.2,30.3,30.04,WNW,293,1.1,4.5,86,0.00,,,0.05,WUHU216HW,2013-03-07 22:15:00,
2013-03-07 17:20:00,34.2,30.3,30.04,NW,315,1.8,4.0,86,0.00,,,0.05,WUHU216HW,2013-03-07 22:20:00,
2013-03-07 17:25:00,34.0,30.2,30.04,West,270,1.8,4.0,86,0.00,,,0.05,WUHU216HW,2013-03-07 22:25:00,
2013-03-07 17:30:00,33.8,30.2,30.04,NNW,338,1.6,2.0,87,0.00,,,0.05,WUHU216HW,2013-03-07 22:30:00,
2013-03-07 17:35:00,33.8,30.2,30.05,WNW,293,0.9,3.4,87,0.00,,,0.05,WUHU216HW,2013-03-07 22:35:00,
2013-03-07 17:40:00,33.5,30.2,30.05,NW,315,2.7,3.4,88,0.00,,,0.05,WUHU216HW,2013-03-07 22:40:00,
2013-03-07 17:45:00,33.5,30.2,30.05,West,270,1.3,2.9,88,0.00,,,0.05,WUHU216HW,2013-03-07 22:45:00,
2013-03-07 17:50:00,33.5,30.2,30.05,West,270,2.0,2.9,88,0.00,,,0.05,WUHU216HW,2013-03-07 22:50:00,
2013-03-07 17:55:00,33.3,30.3,30.05,WNW,293,0.4,2.0,89,0.00,,,0.05,WUHU216HW,2013-03-07 22:55:00,
2013-03-07 18:00:00,33.1,30.3,30.05,West,270,1.6,2.9,89,0.00,,,0.05,WUHU216HW,2013-03-07 23:00:00,
2013-03-07 18:05:00,33.1,30.3,30.05,NNW,338,1.3,2.9,89,0.00,,,0.05,WUHU216HW,2013-03-07 23:05:00,
2013-03-07 18:10:00,32.9,30.3,30.05,NW,315,1.8,2.2,90,0.00,,,0.05,WUHU216HW,2013-03-07 23:10:00,
2013-03-07 18:15:00,32.9,30.3,30.05,WNW,293,1.1,4.7,90,0.00,,,0.05,WUHU216HW,2013-03-07 23:15:00,
2013-03-07 18:20:00,32.8,30.4,30.05,NW,315,0.4,4.7,91,0.00,,,0.05,WUHU216HW,2013-03-07 23:20:00,
2013-03-07 18:25:00,32.8,30.4,30.05,West,270,1.3,2.5,91,0.00,,,0.05,WUHU216HW,2013-03-07 23:25:00,
2013-03-07 18:30:00,32.8,30.4,30.06,West,270,0.9,2.5,91,0.00,,,0.05,WUHU216HW,2013-03-07 23:30:00,
2013-03-07 18:35:00,32.6,30.2,30.05,NW,315,1.6,2.2,91,0.00,,,0.05,WUHU216HW,2013-03-07 23:35:00,
2013-03-07 18:40:00,32.6,30.5,30.05,NW,315,0.7,2.2,92,0.00,,,0.05,WUHU216HW,2013-03-07 23:40:00,
2013-03-07 18:46:00,32.6,30.5,30.06,NW,315,1.1,1.6,92,0.00,,,0.05,WUHU216HW,2013-03-07 23:46:00,
2013-03-07 18:51:00,32.6,30.5,30.06,NW,315,1.1,1.6,92,0.00,,,0.05,WUHU216HW,2013-03-07 23:51:00,
2013-03-07 18:56:00,32.4,30.3,30.06,NW,315,1.1,1.1,92,0.00,,,0.05,WUHU216HW,2013-03-07 23:56:00,
2013-03-07 19:01:00,32.4,30.3,30.06,NW,315,1.8,1.8,92,0.00,,,0.05,WUHU216HW,2013-03-08 00:01:00,
2013-03-07 19:06:00,32.4,30.3,30.05,WNW,293,1.1,1.8,92,0.00,,,0.05,WUHU216HW,2013-03-08 00:06:00,
2013-03-07 19:11:00,32.4,30.3,30.05,WSW,248,0.4,1.8,92,0.00,,,0.05,WUHU216HW,2013-03-08 00:11:00,
2013-03-07 19:16:00,32.4,30.3,30.05,WNW,293,1.3,3.1,92,0.00,,,0.05,WUHU216HW,2013-03-08 00:16:00,
2013-03-07 19:21:00,32.4,30.3,30.05,NNW,338,0.4,3.1,92,0.00,,,0.05,WUHU216HW,2013-03-08 00:21:00,
2013-03-07 19:26:00,32.4,30.6,30.05,WNW,293,1.1,2.7,93,0.00,,,0.05,WUHU216HW,2013-03-08 00:26:00,
2013-03-07 19:31:00,32.4,30.6,30.05,West,270,0.4,2.7,93,0.00,,,0.05,WUHU216HW,2013-03-08 00:31:00,
2013-03-07 19:36:00,32.6,30.8,30.05,West,270,1.1,1.6,93,0.00,,,0.05,WUHU216HW,2013-03-08 00:36:00,
2013-03-07 19:41:00,32.6,30.8,30.05,West,270,0.7,1.8,93,0.00,,,0.05,WUHU216HW,2013-03-08 00:41:00,
2013-03-07 19:46:00,32.6,30.5,30.05,West,270,0.9,1.8,92,0.00,,,0.05,WUHU216HW,2013-03-08 00:46:00,
2013-03-07 19:51:00,32.6,30.8,30.05,West,270,1.3,1.3,93,0.00,,,0.05,WUHU216HW,2013-03-08 00:51:00,
2013-03-07 19:56:00,32.6,30.5,30.05,West,270,0.4,1.3,92,0.00,,,0.05,WUHU216HW,2013-03-08 00:56:00,
2013-03-07 20:01:00,32.4,30.3,30.05,WSW,248,0.4,1.6,92,0.00,,,0.05,WUHU216HW,2013-03-08 01:01:00,
2013-03-07 20:06:00,32.4,30.3,30.05,West,270,0.4,2.0,92,0.00,,,0.05,WUHU216HW,2013-03-08 01:06:00,
2013-03-07 20:11:00,32.4,30.3,30.05,West,270,0.4,2.0,92,0.00,,,0.05,WUHU216HW,2013-03-08 01:11:00,
2013-03-07 20:16:00,32.4,30.3,30.05,West,270,1.3,2.7,92,0.00,,,0.05,WUHU216HW,2013-03-08 01:16:00,
2013-03-07 20:21:00,32.4,30.3,30.05,NW,315,2.2,2.7,92,0.00,,,0.05,WUHU216HW,2013-03-08 01:21:00,
2013-03-07 20:26:00,32.4,30.3,30.05,NW,315,0.4,2.2,92,0.00,,,0.05,WUHU216HW,2013-03-08 01:26:00,
2013-03-07 20:31:00,32.4,30.3,30.05,NW,315,1.6,3.1,92,0.00,,,0.05,WUHU216HW,2013-03-08 01:31:00,
2013-03-07 20:36:00,32.4,30.3,30.05,West,270,0.9,3.1,92,0.00,,,0.05,WUHU216HW,2013-03-08 01:36:00,
2013-03-07 20:41:00,32.2,30.2,30.04,NW,315,1.1,3.4,92,0.00,,,0.05,WUHU216HW,2013-03-08 01:41:00,
2013-03-07 20:46:00,32.2,30.2,30.04,NW,315,0.4,3.4,92,0.00,,,0.05,WUHU216HW,2013-03-08 01:46:00,
2013-03-07 20:51:00,32.2,30.2,30.04,West,270,1.1,2.2,92,0.00,,,0.05,WUHU216HW,2013-03-08 01:51:00,
2013-03-07 20:56:00,32.2,30.2,30.04,West,270,0.4,1.8,92,0.00,,,0.05,WUHU216HW,2013-03-08 01:56:00,
2013-03-07 21:01:00,32.0,30.1,30.04,WNW,293,1.1,1.8,92,0.00,,,0.05,WUHU216HW,2013-03-08 02:01:00,
2013-03-07 21:06:00,32.0,30.2,30.04,NNW,338,0.4,1.8,93,0.00,,,0.05,WUHU216HW,2013-03-08 02:06:00,
2013-03-07 21:11:00,32.0,30.2,30.04,West,270,0.7,1.8,93,0.00,,,0.05,WUHU216HW,2013-03-08 02:11:00,
2013-03-07 21:16:00,32.0,30.2,30.03,West,270,0.4,1.8,93,0.00,,,0.05,WUHU216HW,2013-03-08 02:16:00,
2013-03-07 21:21:00,32.0,30.2,30.03,North,0,1.3,2.9,93,0.00,,,0.05,WUHU216HW,2013-03-08 02:21:00,
2013-03-07 21:26:00,32.0,30.2,30.03,North,0,1.1,2.9,93,0.00,,,0.05,WUHU216HW,2013-03-08 02:26:00,
2013-03-07 21:31:00,32.0,30.2,30.03,WNW,293,0.9,1.8,93,0.00,,,0.05,WUHU216HW,2013-03-08 02:31:00,
2013-03-07 21:36:00,32.0,30.2,30.03,West,270,0.9,1.6,93,0.00,,,0.05,WUHU216HW,2013-03-08 02:36:00,
2013-03-07 21:41:00,32.0,30.2,30.03,West,270,0.9,1.6,93,0.00,,,0.05,WUHU216HW,2013-03-08 02:41:00,
2013-03-07 21:46:00,32.0,30.2,30.02,West,270,2.5,2.5,93,0.00,,,0.05,WUHU216HW,2013-03-08 02:46:00,
2013-03-07 21:51:00,31.9,30.1,30.02,West,270,0.4,2.5,93,0.00,,,0.05,WUHU216HW,2013-03-08 02:51:00,
2013-03-07 21:56:00,31.9,30.1,30.02,West,270,1.1,1.8,93,0.00,,,0.05,WUHU216HW,2013-03-08 02:56:00,
2013-03-07 22:01:00,32.0,30.2,30.02,West,270,1.6,1.6,93,0.00,,,0.05,WUHU216HW,2013-03-08 03:01:00,
2013-03-07 22:06:00,31.9,30.1,30.02,West,270,0.4,1.8,93,0.00,,,0.05,WUHU216HW,2013-03-08 03:06:00,
2013-03-07 22:11:00,31.9,30.1,30.02,West,270,0.4,1.8,93,0.00,,,0.05,WUHU216HW,2013-03-08 03:11:00,
2013-03-07 22:16:00,31.9,30.1,30.02,West,270,0.2,1.3,93,0.00,,,0.05,WUHU216HW,2013-03-08 03:16:00,
2013-03-07 22:22:00,31.9,30.1,30.02,West,270,0.4,1.3,93,0.00,,,0.05,WUHU216HW,2013-03-08 03:22:00,
2013-03-07 22:27:00,31.9,30.1,30.02,NW,315,0.2,0.9,93,0.00,,,0.05,WUHU216HW,2013-03-08 03:27:00,
2013-03-07 22:32:00,31.9,30.1,30.02,NW,315,0.4,0.9,93,0.00,,,0.05,WUHU216HW,2013-03-08 03:32:00,
2013-03-07 22:37:00,31.7,29.9,30.02,NW,315,0.4,0.4,93,0.00,,,0.05,WUHU216HW,2013-03-08 03:37:00,
2013-03-07 22:42:00,31.7,29.9,30.01,NW,315,0.2,0.9,93,0.00,,,0.05,WUHU216HW,2013-03-08 03:42:00,
2013-03-07 22:47:00,31.7,29.9,30.01,WNW,293,0.4,1.1,93,0.00,,,0.05,WUHU216HW,2013-03-08 03:47:00,
2013-03-07 22:52:00,31.7,29.9,30.01,WNW,293,0.0,0.7,93,0.00,,,0.05,WUHU216HW,2013-03-08 03:52:00,
2013-03-07 22:57:00,31.7,29.9,30.01,WNW,293,0.2,0.7,93,0.00,,,0.05,WUHU216HW,2013-03-08 03:57:00,
2013-03-07 23:02:00,31.7,29.9,30.01,WNW,293,0.0,0.7,93,0.00,,,0.05,WUHU216HW,2013-03-08 04:02:00,
2013-03-07 23:07:00,31.7,29.9,30.01,WNW,293,0.0,0.4,93,0.00,,,0.05,WUHU216HW,2013-03-08 04:07:00,
2013-03-07 23:12:00,31.7,29.9,30.01,WNW,293,0.0,0.4,93,0.00,,,0.05,WUHU216HW,2013-03-08 04:12:00,
2013-03-07 23:17:00,31.7,29.9,30.01,WNW,293,0.0,0.4,93,0.00,,,0.05,WUHU216HW,2013-03-08 04:17:00,
2013-03-07 23:22:00,31.7,29.9,30.01,WNW,293,0.0,0.4,93,0.00,,,0.05,WUHU216HW,2013-03-08 04:22:00,
2013-03-07 23:27:00,31.7,29.9,30.01,WNW,293,0.0,0.4,93,0.00,,,0.05,WUHU216HW,2013-03-08 04:27:00,
2013-03-07 23:32:00,31.7,29.9,30.01,WNW,293,0.2,0.4,93,0.00,,,0.05,WUHU216HW,2013-03-08 04:32:00,
2013-03-07 23:37:00,31.7,29.9,30.00,WNW,293,0.4,0.4,93,0.00,,,0.05,WUHU216HW,2013-03-08 04:37:00,
2013-03-07 23:42:00,31.7,29.9,30.00,WNW,293,0.2,0.4,93,0.00,,,0.05,WUHU216HW,2013-03-08 04:42:00,
2013-03-07 23:47:00,31.7,29.9,30.00,WNW,293,0.0,0.4,93,0.00,,,0.05,WUHU216HW,2013-03-08 04:47:00,
2013-03-07 23:52:00,31.7,29.9,30.00,WNW,293,0.4,0.4,93,0.00,,,0.05,WUHU216HW,2013-03-08 04:52:00,
2013-03-07 23:57:00,31.7,29.9,30.00,WNW,293,0.4,0.4,93,0.00,,,0.05,WUHU216HW,2013-03-08 04:57:00,